Time,TemperatureF,DewpointF,PressureIn,WindDirection,WindDirectionDegrees,WindSpeedMPH,WindSpeedGustMPH,Humidity,HourlyPrecipIn,Conditions,Clouds,dailyrainin,SoftwareType,DateUTC
2013-01-19 01:22:00,41.0,28.0,-100.00,SW,235,8.0,20.0,58,-99.99,,,-99.99,,2013-01-19 07:22:00,
2013-01-19 01:33:00,41.0,28.0,-100.00,SW,235,8.0,20.0,58,-99.99,,,-99.99,,2013-01-19 07:33:00,
2013-01-19 01:43:00,41.0,27.0,-100.00,WSW,240,6.0,18.0,58,-99.99,,,-99.99,,2013-01-19 07:43:00,
2013-01-19 01:53:00,41.0,27.0,-100.00,WSW,250,8.0,16.0,59,-99.99,,,-99.99,,2013-01-19 07:53:00,
2013-01-19 02:02:00,41.0,27.0,-100.00,WSW,250,8.0,16.0,59,-99.99,,,-99.99,,2013-01-19 08:02:00,
2013-01-19 02:12:00,40.0,27.0,-100.00,WSW,245,6.0,21.0,59,-99.99,,,-99.99,,2013-01-19 08:12:00,
2013-01-19 02:22:00,40.0,28.0,-100.00,WSW,240,7.0,18.0,60,-99.99,,,-99.99,,2013-01-19 08:22:00,
2013-01-19 02:32:00,40.0,28.0,-100.00,WSW,240,7.0,18.0,60,-99.99,,,-99.99,,2013-01-19 08:32:00,
2013-01-19 02:43:00,40.0,27.0,-100.00,SW,230,6.0,16.0,60,-99.99,,,-99.99,,2013-01-19 08:43:00,
2013-01-19 02:53:00,40.0,28.0,-100.00,SW,225,6.0,19.0,61,-99.99,,,-99.99,,2013-01-19 08:53:00,
2013-01-19 03:02:00,40.0,28.0,-100.00,SW,225,6.0,19.0,61,-99.99,,,-99.99,,2013-01-19 09:02:00,
2013-01-19 03:12:00,40.0,28.0,-100.00,SW,220,5.0,16.0,61,-99.99,,,-99.99,,2013-01-19 09:12:00,
2013-01-19 03:23:00,40.0,28.0,-100.00,SW,215,7.0,14.0,62,-99.99,,,-99.99,,2013-01-19 09:23:00,
2013-01-19 03:33:00,40.0,28.0,-100.00,SW,215,7.0,14.0,62,-99.99,,,-99.99,,2013-01-19 09:33:00,
2013-01-19 03:42:00,39.0,27.0,-100.00,SW,225,4.0,14.0,62,-99.99,,,-99.99,,2013-01-19 09:42:00,
2013-01-19 03:53:00,38.0,27.0,-100.00,SSW,210,5.0,11.0,64,-99.99,,,-99.99,,2013-01-19 09:53:00,
2013-01-19 04:02:00,38.0,27.0,-100.00,SSW,210,5.0,11.0,64,-99.99,,,-99.99,,2013-01-19 10:02:00,
2013-01-19 04:12:00,38.0,27.0,-100.00,SW,235,4.0,10.0,65,-99.99,,,-99.99,,2013-01-19 10:12:00,
2013-01-19 04:22:00,38.0,27.0,-100.00,SW,220,6.0,11.0,65,-99.99,,,-99.99,,2013-01-19 10:22:00,
2013-01-19 04:32:00,38.0,27.0,-100.00,SW,220,6.0,11.0,65,-99.99,,,-99.99,,2013-01-19 10:32:00,
2013-01-19 04:42:00,38.0,27.0,-100.00,SW,230,5.0,14.0,66,-99.99,,,-99.99,,2013-01-19 10:42:00,
2013-01-19 04:53:00,37.0,27.0,-100.00,SW,220,6.0,12.0,67,-99.99,,,-99.99,,2013-01-19 10:53:00,
2013-01-19 05:03:00,37.0,27.0,-100.00,SW,220,6.0,12.0,67,-99.99,,,-99.99,,2013-01-19 11:03:00,
2013-01-19 05:12:00,36.0,27.0,-100.00,SW,220,5.0,8.0,68,-99.99,,,-99.99,,2013-01-19 11:12:00,
2013-01-19 06:48:00,36.0,28.0,-100.00,SSW,200,5.0,12.0,72,-99.99,,,-99.99,,2013-01-19 12:48:00,
2013-01-19 06:53:00,36.0,28.0,-100.00,South,190,7.0,11.0,73,-99.99,,,-99.99,,2013-01-19 12:53:00,
2013-01-19 07:03:00,36.0,28.0,-100.00,South,190,7.0,11.0,73,-99.99,,,-99.99,,2013-01-19 13:03:00,
2013-01-19 07:12:00,36.0,28.0,-100.00,South,190,6.0,9.0,73,-99.99,,,-99.99,,2013-01-19 13:12:00,
2013-01-19 07:22:00,36.0,29.0,-100.00,SSW,195,4.0,7.0,74,-99.99,,,-99.99,,2013-01-19 13:22:00,
2013-01-19 07:33:00,36.0,29.0,-100.00,SSW,195,4.0,7.0,74,-99.99,,,-99.99,,2013-01-19 13:33:00,
2013-01-19 07:42:00,36.0,28.0,-100.00,South,190,2.0,6.0,74,-99.99,,,-99.99,,2013-01-19 13:42:00,
2013-01-19 07:53:00,36.0,29.0,-100.00,South,185,6.0,9.0,75,-99.99,,,-99.99,,2013-01-19 13:53:00,
2013-01-19 08:02:00,36.0,29.0,-100.00,South,185,6.0,9.0,75,-99.99,,,-99.99,,2013-01-19 14:02:00,
2013-01-19 08:12:00,37.0,30.0,-100.00,SSW,195,4.0,14.0,75,-99.99,,,-99.99,,2013-01-19 14:12:00,
2013-01-19 08:23:00,38.0,30.0,-100.00,South,185,2.0,9.0,74,-99.99,,,-99.99,,2013-01-19 14:23:00,
2013-01-19 08:34:00,38.0,30.0,-100.00,South,185,2.0,9.0,74,-99.99,,,-99.99,,2013-01-19 14:34:00,
2013-01-19 08:43:00,38.0,30.0,-100.00,SSW,200,4.0,10.0,73,-99.99,,,-99.99,,2013-01-19 14:43:00,
2013-01-19 08:53:00,38.0,30.0,-100.00,SW,225,5.0,11.0,73,-99.99,,,-99.99,,2013-01-19 14:53:00,
2013-01-19 09:03:00,38.0,30.0,-100.00,SW,225,5.0,11.0,73,-99.99,,,-99.99,,2013-01-19 15:03:00,
2013-01-19 09:12:00,39.0,31.0,-100.00,SSW,205,1.0,11.0,72,-99.99,,,-99.99,,2013-01-19 15:12:00,
2013-01-19 09:23:00,40.0,31.0,-100.00,West,265,4.0,9.0,71,-99.99,,,-99.99,,2013-01-19 15:23:00,
2013-01-19 09:33:00,40.0,31.0,-100.00,West,265,4.0,9.0,71,-99.99,,,-99.99,,2013-01-19 15:33:00,
2013-01-19 09:43:00,41.0,32.0,-100.00,WSW,245,6.0,11.0,69,-99.99,,,-99.99,,2013-01-19 15:43:00,
2013-01-19 09:53:00,42.0,32.0,-100.00,SW,230,6.0,15.0,67,-99.99,,,-99.99,,2013-01-19 15:53:00,
2013-01-19 10:03:00,42.0,32.0,-100.00,SW,230,6.0,15.0,67,-99.99,,,-99.99,,2013-01-19 16:03:00,
2013-01-19 10:13:00,43.0,33.0,-100.00,West,260,4.0,14.0,66,-99.99,,,-99.99,,2013-01-19 16:13:00,
2013-01-19 10:23:00,44.0,33.0,-100.00,SW,225,6.0,16.0,65,-99.99,,,-99.99,,2013-01-19 16:23:00,
2013-01-19 10:33:00,44.0,33.0,-100.00,SW,225,6.0,16.0,65,-99.99,,,-99.99,,2013-01-19 16:33:00,
2013-01-19 10:43:00,43.0,32.0,-100.00,SW,215,6.0,20.0,64,-99.99,,,-99.99,,2013-01-19 16:43:00,
2013-01-19 10:54:00,44.0,33.0,-100.00,SW,220,6.0,15.0,64,-99.99,,,-99.99,,2013-01-19 16:54:00,
2013-01-19 11:03:00,44.0,33.0,-100.00,SW,220,6.0,15.0,64,-99.99,,,-99.99,,2013-01-19 17:03:00,
2013-01-19 11:19:00,46.0,34.0,-100.00,SW,230,6.0,18.0,62,-99.99,,,-99.99,,2013-01-19 17:19:00,
2013-01-19 11:28:00,48.0,35.0,-100.00,SW,225,1.0,23.0,61,-99.99,,,-99.99,,2013-01-19 17:28:00,
2013-01-19 11:35:00,49.0,35.0,-100.00,SW,215,6.0,18.0,58,-99.99,,,-99.99,,2013-01-19 17:35:00,
2013-01-19 11:48:00,49.0,35.0,-100.00,SW,215,6.0,18.0,58,-99.99,,,-99.99,,2013-01-19 17:48:00,
2013-01-19 11:55:00,50.0,35.0,-100.00,SSW,210,13.0,24.0,55,-99.99,,,-99.99,,2013-01-19 17:55:00,
2013-01-19 12:11:00,50.0,35.0,-100.00,SSW,210,13.0,24.0,55,-99.99,,,-99.99,,2013-01-19 18:11:00,
2013-01-19 12:35:00,49.0,34.0,-100.00,SW,225,11.0,18.0,57,-99.99,,,-99.99,,2013-01-19 18:35:00,
2013-01-19 12:45:00,49.0,34.0,-100.00,WSW,240,11.0,27.0,56,-99.99,,,-99.99,,2013-01-19 18:45:00,
2013-01-19 13:09:00,48.0,34.0,-100.00,SW,225,11.0,25.0,58,-99.99,,,-99.99,,2013-01-19 19:09:00,
2013-01-19 13:20:00,48.0,34.0,-100.00,SW,230,1.0,23.0,58,-99.99,,,-99.99,,2013-01-19 19:20:00,
2013-01-19 13:39:00,49.0,34.0,-100.00,WSW,255,5.0,20.0,58,-99.99,,,-99.99,,2013-01-19 19:39:00,
2013-01-19 13:45:00,48.0,34.0,-100.00,SSW,205,11.0,22.0,59,-99.99,,,-99.99,,2013-01-19 19:45:00,
2013-01-19 13:58:00,48.0,35.0,-100.00,SSW,205,8.0,21.0,59,-99.99,,,-99.99,,2013-01-19 19:58:00,
2013-01-19 14:10:00,48.0,35.0,-100.00,SSW,205,8.0,21.0,59,-99.99,,,-99.99,,2013-01-19 20:10:00,
2013-01-19 14:19:00,48.0,35.0,-100.00,West,270,7.0,23.0,60,-99.99,,,-99.99,,2013-01-19 20:19:00,
2013-01-19 14:25:00,51.0,36.0,-100.00,SSW,195,8.0,19.0,58,-99.99,,,-99.99,,2013-01-19 20:25:00,
2013-01-19 14:38:00,51.0,36.0,-100.00,SSW,195,8.0,19.0,58,-99.99,,,-99.99,,2013-01-19 20:38:00,
2013-01-19 14:48:00,51.0,36.0,-100.00,SW,230,10.0,19.0,56,-99.99,,,-99.99,,2013-01-19 20:48:00,
2013-01-19 14:59:00,51.0,36.0,-100.00,WSW,240,6.0,20.0,55,-99.99,,,-99.99,,2013-01-19 20:59:00,
2013-01-19 15:06:00,51.0,36.0,-100.00,WSW,240,6.0,20.0,55,-99.99,,,-99.99,,2013-01-19 21:06:00,
2013-01-19 15:14:00,52.0,36.0,-100.00,SW,225,6.0,21.0,55,-99.99,,,-99.99,,2013-01-19 21:14:00,
2013-01-19 15:26:00,51.0,36.0,-100.00,WSW,250,6.0,23.0,55,-99.99,,,-99.99,,2013-01-19 21:26:00,
2013-01-19 15:44:00,51.0,36.0,-100.00,WSW,250,6.0,23.0,55,-99.99,,,-99.99,,2013-01-19 21:44:00,
2013-01-19 15:50:00,52.0,36.0,-100.00,West,270,6.0,16.0,55,-99.99,,,-99.99,,2013-01-19 21:50:00,
2013-01-19 16:00:00,52.0,36.0,-100.00,WSW,245,6.0,18.0,55,-99.99,,,-99.99,,2013-01-19 22:00:00,
2013-01-19 16:13:00,52.0,36.0,-100.00,WSW,245,6.0,18.0,55,-99.99,,,-99.99,,2013-01-19 22:13:00,
2013-01-19 16:47:00,50.0,36.0,-100.00,SW,220,5.0,18.0,57,-99.99,,,-99.99,,2013-01-19 22:47:00,
2013-01-19 16:58:00,50.0,35.0,-100.00,WNW,285,6.0,19.0,57,-99.99,,,-99.99,,2013-01-19 22:58:00,
2013-01-19 17:13:00,50.0,35.0,-100.00,WNW,285,6.0,19.0,57,-99.99,,,-99.99,,2013-01-19 23:13:00,
2013-01-19 17:25:00,49.0,35.0,-100.00,West,270,10.0,19.0,58,-99.99,,,-99.99,,2013-01-19 23:25:00,
2013-01-19 17:34:00,49.0,35.0,-100.00,West,270,10.0,19.0,58,-99.99,,,-99.99,,2013-01-19 23:34:00,
2013-01-19 17:45:00,48.0,34.0,-100.00,WSW,255,9.0,19.0,58,-99.99,,,-99.99,,2013-01-19 23:45:00,
2013-01-19 18:07:00,47.0,34.0,-100.00,WNW,285,10.0,16.0,59,-99.99,,,-99.99,,2013-01-20 00:07:00,
2013-01-19 18:15:00,47.0,34.0,-100.00,West,270,8.0,19.0,60,-99.99,,,-99.99,,2013-01-20 00:15:00,
2013-01-19 18:25:00,46.0,33.0,-100.00,WSW,250,6.0,14.0,61,-99.99,,,-99.99,,2013-01-20 00:25:00,
2013-01-19 18:35:00,46.0,33.0,-100.00,WSW,250,6.0,14.0,61,-99.99,,,-99.99,,2013-01-20 00:35:00,
2013-01-19 18:46:00,46.0,33.0,-100.00,West,270,8.0,15.0,62,-99.99,,,-99.99,,2013-01-20 00:46:00,
2013-01-19 18:57:00,45.0,33.0,-100.00,West,270,0.0,19.0,62,-99.99,,,-99.99,,2013-01-20 00:57:00,
2013-01-19 19:04:00,45.0,33.0,-100.00,West,270,0.0,19.0,62,-99.99,,,-99.99,,2013-01-20 01:04:00,
2013-01-19 19:19:00,45.0,33.0,-100.00,West,260,3.0,14.0,63,-99.99,,,-99.99,,2013-01-20 01:19:00,
2013-01-19 19:26:00,45.0,33.0,-100.00,West,270,1.0,16.0,63,-99.99,,,-99.99,,2013-01-20 01:26:00,
2013-01-19 19:47:00,45.0,33.0,-100.00,West,265,3.0,18.0,62,-99.99,,,-99.99,,2013-01-20 01:47:00,
2013-01-19 20:04:00,45.0,32.0,-100.00,West,275,1.0,18.0,61,-99.99,,,-99.99,,2013-01-20 02:04:00,
2013-01-19 20:14:00,45.0,32.0,-100.00,West,280,4.0,15.0,60,-99.99,,,-99.99,,2013-01-20 02:14:00,
2013-01-19 20:26:00,45.0,32.0,-100.00,West,275,4.0,21.0,60,-99.99,,,-99.99,,2013-01-20 02:26:00,
2013-01-19 20:35:00,45.0,32.0,-100.00,West,275,4.0,21.0,60,-99.99,,,-99.99,,2013-01-20 02:35:00,
2013-01-19 20:44:00,45.0,32.0,-100.00,West,280,2.0,21.0,60,-99.99,,,-99.99,,2013-01-20 02:44:00,
2013-01-19 20:59:00,45.0,32.0,-100.00,WNW,285,4.0,39.0,60,-99.99,,,-99.99,,2013-01-20 02:59:00,
2013-01-19 21:08:00,45.0,32.0,-100.00,WNW,285,4.0,39.0,60,-99.99,,,-99.99,,2013-01-20 03:08:00,
2013-01-19 21:14:00,44.0,31.0,-100.00,WNW,295,7.0,24.0,60,-99.99,,,-99.99,,2013-01-20 03:14:00,
2013-01-19 21:25:00,43.0,31.0,-100.00,WNW,295,9.0,19.0,62,-99.99,,,-99.99,,2013-01-20 03:25:00,
2013-01-19 21:38:00,43.0,31.0,-100.00,WNW,295,9.0,19.0,62,-99.99,,,-99.99,,2013-01-20 03:38:00,
2013-01-19 21:45:00,42.0,30.0,-100.00,West,275,11.0,29.0,62,-99.99,,,-99.99,,2013-01-20 03:45:00,
2013-01-19 21:58:00,42.0,30.0,-100.00,WNW,290,16.0,31.0,61,-99.99,,,-99.99,,2013-01-20 03:58:00,
2013-01-19 22:05:00,42.0,30.0,-100.00,WNW,290,16.0,31.0,61,-99.99,,,-99.99,,2013-01-20 04:05:00,
2013-01-19 22:15:00,41.0,28.0,-100.00,NW,305,11.0,37.0,60,-99.99,,,-99.99,,2013-01-20 04:15:00,
2013-01-19 22:25:00,40.0,28.0,-100.00,WNW,300,10.0,29.0,61,-99.99,,,-99.99,,2013-01-20 04:25:00,
2013-01-19 22:35:00,40.0,28.0,-100.00,WNW,300,10.0,29.0,61,-99.99,,,-99.99,,2013-01-20 04:35:00,
2013-01-19 22:44:00,37.0,24.0,-100.00,WNW,295,13.0,33.0,59,-99.99,,,-99.99,,2013-01-20 04:44:00,
2013-01-19 22:58:00,36.0,22.0,-100.00,WNW,295,16.0,38.0,57,-99.99,,,-99.99,,2013-01-20 04:58:00,
2013-01-19 23:04:00,36.0,22.0,-100.00,WNW,295,16.0,38.0,57,-99.99,,,-99.99,,2013-01-20 05:04:00,
2013-01-19 23:12:00,33.0,19.0,-100.00,WNW,300,15.0,39.0,56,-99.99,,,-99.99,,2013-01-20 05:12:00,
2013-01-19 23:22:00,32.0,18.0,-100.00,West,280,18.0,37.0,57,-99.99,,,-99.99,,2013-01-20 05:22:00,
2013-01-19 23:32:00,32.0,18.0,-100.00,West,280,18.0,37.0,57,-99.99,,,-99.99,,2013-01-20 05:32:00,
2013-01-19 23:42:00,31.0,15.0,-100.00,WNW,290,16.0,32.0,51,-99.99,,,-99.99,,2013-01-20 05:42:00,
2013-01-19 23:53:00,30.0,15.0,-100.00,WNW,290,12.0,24.0,52,-99.99,,,-99.99,,2013-01-20 05:53:00,